• In Belarus
  • List of Countries
  • For 7 days
  • Water Temperature
  • Satellite Maps
  • Weather Map
  • Weather Widgets
  • user-avatar
    Login

    Hourly Weather Ganja

    Today, 26 July, Wednesday

    Time Temperature Precipitation Wind Pressure Humidity
    00:00 +26°C° 0.2 mm 2 mps 721 mmHg 53%
    01:00 +26°C° 0.6 mm 2 mps 721 mmHg 54%
    02:00 +25°C° 0.6 mm 1 mps 721 mmHg 56%
    03:00 +25°C° 0.6 mm 1 mps 721 mmHg 57%
    04:00 +25°C° 0 mm 1 mps 721 mmHg 55%
    05:00 +26°C° 0 mm 1 mps 721 mmHg 54%
    06:00 +26°C° 0 mm 1 mps 721 mmHg 52%
    07:00 +27°C° 0 mm 2 mps 721 mmHg 48%
    08:00 +29°C° 0 mm 2 mps 721 mmHg 44%
    09:00 +30°C° 0 mm 2 mps 721 mmHg 40%
    10:00 +31°C° 0 mm 2 mps 721 mmHg 38%
    11:00 +32°C° 0 mm 2 mps 720 mmHg 37%
    12:00 +35°C° 0 mm 2 mps 720 mmHg 35%
    13:00 +35°C° 0 mm 2 mps 720 mmHg 34%
    14:00 +36°C° 0 mm 2 mps 720 mmHg 34%
    15:00 +37°C° 0 mm 3 mps 720 mmHg 33%
    16:00 +36°C° 0 mm 3 mps 720 mmHg 35%
    17:00 +36°C° 0 mm 3 mps 720 mmHg 37%
    18:00 +35°C° 0 mm 3 mps 720 mmHg 38%
    19:00 +34°C° 0 mm 3 mps 721 mmHg 42%
    20:00 +31°C° 0 mm 3 mps 721 mmHg 45%
    21:00 +29°C° 0 mm 3 mps 721 mmHg 48%
    22:00 +29°C° 0 mm 3 mps 722 mmHg 50%
    23:00 +28°C° 0 mm 3 mps 722 mmHg 52%

    Tomorrow, 27 July, Thursday

    Time Temperature Precipitation Wind Pressure Humidity
    00:00 +27°C° 0 mm 3 mps 722 mmHg 54%
    01:00 +27°C° 0 mm 3 mps 722 mmHg 55%
    02:00 +26°C° 0 mm 2 mps 722 mmHg 57%
    03:00 +26°C° 0 mm 2 mps 723 mmHg 58%
    04:00 +26°C° 0 mm 1 mps 723 mmHg 57%
    05:00 +26°C° 0 mm 1 mps 723 mmHg 56%
    06:00 +26°C° 0 mm 1 mps 723 mmHg 56%
    07:00 +28°C° 0 mm 1 mps 723 mmHg 52%
    08:00 +29°C° 0 mm 1 mps 723 mmHg 48%
    09:00 +31°C° 0 mm 2 mps 723 mmHg 44%
    10:00 +32°C° 0 mm 2 mps 723 mmHg 41%
    11:00 +34°C° 0 mm 2 mps 723 mmHg 38%
    12:00 +35°C° 0 mm 2 mps 723 mmHg 36%
    13:00 +36°C° 0 mm 3 mps 722 mmHg 34%
    14:00 +37°C° 0 mm 3 mps 722 mmHg 33%
    15:00 +38°C° 0 mm 3 mps 722 mmHg 31%
    16:00 +37°C° 0 mm 3 mps 722 mmHg 32%
    17:00 +37°C° 0 mm 3 mps 722 mmHg 33%
    18:00 +37°C° 0 mm 3 mps 722 mmHg 34%
    19:00 +35°C° 0 mm 3 mps 722 mmHg 37%
    20:00 +33°C° 0 mm 3 mps 723 mmHg 40%
    21:00 +30°C° 0 mm 4 mps 723 mmHg 42%
    22:00 +30°C° 0 mm 3 mps 723 mmHg 43%
    23:00 +29°C° 0 mm 3 mps 723 mmHg 44%

    Day after tomorrow, 28 July, Friday

    Time Temperature Precipitation Wind Pressure Humidity
    00:00 +28°C° 0 mm 3 mps 724 mmHg 45%
    01:00 +28°C° 0 mm 3 mps 723 mmHg 46%
    02:00 +27°C° 0 mm 2 mps 723 mmHg 46%
    03:00 +27°C° 0 mm 2 mps 723 mmHg 47%
    04:00 +27°C° 0 mm 2 mps 723 mmHg 46%
    05:00 +27°C° 0 mm 2 mps 723 mmHg 46%
    06:00 +27°C° 0 mm 2 mps 723 mmHg 46%
    07:00 +29°C° 0 mm 2 mps 723 mmHg 42%
    08:00 +31°C° 0 mm 2 mps 723 mmHg 39%
    09:00 +32°C° 0 mm 2 mps 723 mmHg 35%
    10:00 +35°C° 0 mm 2 mps 723 mmHg 33%
    11:00 +36°C° 0 mm 2 mps 722 mmHg 31%
    12:00 +37°C° 0 mm 2 mps 722 mmHg 29%
    13:00 +38°C° 0 mm 2 mps 721 mmHg 29%
    14:00 +39°C° 0 mm 2 mps 721 mmHg 28%
    15:00 +39°C° 0 mm 2 mps 721 mmHg 27%
    16:00 +39°C° 0 mm 2 mps 721 mmHg 29%
    17:00 +39°C° 0 mm 2 mps 721 mmHg 31%
    18:00 +38°C° 0 mm 2 mps 721 mmHg 32%
    19:00 +36°C° 0 mm 2 mps 721 mmHg 34%
    20:00 +35°C° 0 mm 2 mps 721 mmHg 37%
    21:00 +32°C° 0 mm 2 mps 722 mmHg 39%
    22:00 +31°C° 0 mm 2 mps 722 mmHg 39%
    23:00 +30°C° 0 mm 2 mps 722 mmHg 40%

    29 July, Saturday

    Time Temperature Precipitation Wind Pressure Humidity
    00:00 +30°C° 0 mm 2 mps 722 mmHg 40%
    01:00 +29°C° 0 mm 1 mps 722 mmHg 40%
    02:00 +29°C° 0 mm 1 mps 722 mmHg 40%
    03:00 +28°C° 0 mm 1 mps 722 mmHg 40%
    04:00 +29°C° 0 mm 2 mps 722 mmHg 39%
    05:00 +29°C° 0 mm 2 mps 722 mmHg 39%
    06:00 +29°C° 0 mm 3 mps 723 mmHg 38%
    07:00 +31°C° 0 mm 3 mps 723 mmHg 34%
    08:00 +35°C° 0 mm 3 mps 723 mmHg 30%
    09:00 +37°C° 0 mm 3 mps 723 mmHg 26%
    10:00 +38°C° 0 mm 3 mps 722 mmHg 25%
    11:00 +39°C° 0 mm 3 mps 722 mmHg 23%
    12:00 +40°C° 0 mm 3 mps 722 mmHg 22%
    13:00 +42°C° 0 mm 3 mps 721 mmHg 21%
    14:00 +43°C° 0 mm 3 mps 721 mmHg 20%
    15:00 +43°C° 0 mm 3 mps 721 mmHg 20%
    16:00 +43°C° 0 mm 3 mps 721 mmHg 21%
    17:00 +42°C° 0 mm 3 mps 721 mmHg 22%
    18:00 +40°C° 0 mm 3 mps 722 mmHg 23%
    19:00 +38°C° 0 mm 4 mps 722 mmHg 28%
    20:00 +36°C° 0 mm 4 mps 723 mmHg 33%
    21:00 +33°C° 0 mm 4 mps 724 mmHg 38%
    22:00 +32°C° 0 mm 5 mps 724 mmHg 42%
    23:00 +30°C° 0 mm 5 mps 724 mmHg 45%

    30 July, Sunday

    Time Temperature Precipitation Wind Pressure Humidity
    00:00 +30°C° 0 mm 5 mps 724 mmHg 49%
    01:00 +29°C° 0 mm 5 mps 725 mmHg 50%
    02:00 +29°C° 0 mm 5 mps 725 mmHg 52%
    03:00 +28°C° 0 mm 5 mps 725 mmHg 53%
    04:00 +28°C° 0 mm 5 mps 725 mmHg 53%
    05:00 +28°C° 0 mm 4 mps 725 mmHg 53%
    06:00 +28°C° 0 mm 4 mps 726 mmHg 53%
    07:00 +30°C° 0 mm 4 mps 726 mmHg 48%
    08:00 +33°C° 0 mm 5 mps 726 mmHg 43%
    09:00 +34°C° 0 mm 5 mps 726 mmHg 38%
    10:00 +35°C° 0 mm 4 mps 726 mmHg 35%
    11:00 +36°C° 0 mm 3 mps 725 mmHg 33%
    12:00 +37°C° 0 mm 3 mps 725 mmHg 30%
    13:00 +38°C° 0 mm 3 mps 725 mmHg 30%
    14:00 +38°C° 0 mm 3 mps 725 mmHg 29%
    15:00 +39°C° 0 mm 3 mps 724 mmHg 28%
    16:00 +38°C° 0 mm 3 mps 724 mmHg 30%
    17:00 +38°C° 0 mm 3 mps 725 mmHg 31%
    18:00 +37°C° 0 mm 3 mps 725 mmHg 33%
    19:00 +35°C° 0 mm 4 mps 725 mmHg 38%
    20:00 +34°C° 0 mm 4 mps 726 mmHg 43%
    21:00 +32°C° 0 mm 5 mps 727 mmHg 48%
    22:00 +30°C° 0.1 mm 5 mps 727 mmHg 50%
    23:00 +29°C° 0.1 mm 4 mps 727 mmHg 52%

    31 July, Monday

    Time Temperature Precipitation Wind Pressure Humidity
    00:00 +28°C° 0.1 mm 4 mps 728 mmHg 54%
    01:00 +28°C° 0.2 mm 4 mps 728 mmHg 55%
    02:00 +27°C° 0.2 mm 4 mps 728 mmHg 57%
    03:00 +27°C° 0.2 mm 3 mps 728 mmHg 59%
    04:00 +27°C° 0.1 mm 3 mps 728 mmHg 59%
    05:00 +27°C° 0.1 mm 2 mps 728 mmHg 59%
    06:00 +27°C° 0.1 mm 2 mps 728 mmHg 60%
    07:00 +28°C° 0.1 mm 2 mps 729 mmHg 55%
    08:00 +30°C° 0.1 mm 3 mps 729 mmHg 50%
    09:00 +31°C° 0.1 mm 3 mps 729 mmHg 45%
    10:00 +33°C° 0 mm 4 mps 729 mmHg 42%
    11:00 +34°C° 0 mm 4 mps 728 mmHg 38%
    12:00 +36°C° 0 mm 5 mps 728 mmHg 35%
    13:00 +36°C° 0 mm 5 mps 728 mmHg 34%
    14:00 +38°C° 0 mm 6 mps 727 mmHg 33%
    15:00 +38°C° 0 mm 6 mps 727 mmHg 32%
    16:00 +38°C° 0 mm 6 mps 727 mmHg 33%
    17:00 +36°C° 0 mm 6 mps 727 mmHg 34%
    18:00 +35°C° 0 mm 6 mps 727 mmHg 35%
    19:00 +33°C° 0 mm 6 mps 728 mmHg 39%
    20:00 +32°C° 0 mm 6 mps 728 mmHg 43%
    21:00 +29°C° 0 mm 5 mps 729 mmHg 47%
    22:00 +28°C° 0 mm 5 mps 729 mmHg 49%
    23:00 +28°C° 0 mm 5 mps 729 mmHg 50%
    Show more